• Em Portugal
  • Lista de países
  • Para 7 dias
  • Temperatura da água
  • Mapas de satélite
  • Mapa do tempo
  • Widgets de tempo
  • user-avatar
    Iniciar Sessão

    Previsão horária em Szczytno

    Hoje, 15 Agosto, Quarta-feira

    Tempo Temperatura Precipitação Vento Pressão Humidade
    00:00 +17°C° 0 mm 3 m/s 745 mmHg 88%
    01:00 +17°C° 0 mm 3 m/s 745 mmHg 90%
    02:00 +17°C° 0 mm 3 m/s 745 mmHg 92%
    03:00 +17°C° 0 mm 3 m/s 745 mmHg 93%
    04:00 +17°C° 0 mm 3 m/s 746 mmHg 95%
    05:00 +17°C° 0 mm 4 m/s 746 mmHg 92%
    06:00 +18°C° 0 mm 4 m/s 747 mmHg 89%
    07:00 +19°C° 0 mm 4 m/s 747 mmHg 85%
    08:00 +19°C° 0,2 mm 4 m/s 747 mmHg 82%
    09:00 +20°C° 0,2 mm 4 m/s 748 mmHg 79%
    10:00 +21°C° 0,2 mm 5 m/s 748 mmHg 76%
    11:00 +21°C° 0,5 mm 5 m/s 749 mmHg 73%
    12:00 +22°C° 0,5 mm 5 m/s 749 mmHg 70%
    13:00 +23°C° 0 mm 5 m/s 749 mmHg 68%
    14:00 +23°C° 0,1 mm 5 m/s 749 mmHg 65%
    15:00 +23°C° 0,1 mm 5 m/s 750 mmHg 62%
    16:00 +23°C° 0,1 mm 5 m/s 750 mmHg 59%
    17:00 +22°C° 0 mm 4 m/s 750 mmHg 64%
    18:00 +20°C° 0 mm 3 m/s 750 mmHg 69%
    19:00 +19°C° 0 mm 2 m/s 750 mmHg 74%
    20:00 +18°C° 0 mm 2 m/s 750 mmHg 78%
    21:00 +18°C° 0 mm 1 m/s 751 mmHg 82%
    22:00 +16°C° 0 mm 1 m/s 751 mmHg 86%
    23:00 +16°C° 0 mm 1 m/s 751 mmHg 87%

    Amanhã, 16 Agosto, Quinta-feira

    Tempo Temperatura Precipitação Vento Pressão Humidade
    00:00 +16°C° 0 mm 1 m/s 751 mmHg 88%
    01:00 +15°C° 0 mm 1 m/s 751 mmHg 89%
    02:00 +15°C° 0 mm 1 m/s 751 mmHg 90%
    03:00 +15°C° 0 mm 1 m/s 751 mmHg 91%
    04:00 +15°C° 0 mm 1 m/s 751 mmHg 91%
    05:00 +16°C° 0 mm 1 m/s 752 mmHg 86%
    06:00 +18°C° 0 mm 1 m/s 752 mmHg 81%
    07:00 +20°C° 0 mm 1 m/s 752 mmHg 76%
    08:00 +21°C° 0 mm 1 m/s 752 mmHg 69%
    09:00 +23°C° 0 mm 1 m/s 752 mmHg 63%
    10:00 +25°C° 0 mm 1 m/s 752 mmHg 57%
    11:00 +25°C° 0 mm 1 m/s 752 mmHg 54%
    12:00 +26°C° 0 mm 1 m/s 752 mmHg 51%
    13:00 +27°C° 0 mm 1 m/s 752 mmHg 48%
    14:00 +27°C° 0 mm 1 m/s 751 mmHg 50%
    15:00 +26°C° 0 mm 1 m/s 751 mmHg 52%
    16:00 +26°C° 0 mm 1 m/s 751 mmHg 54%
    17:00 +25°C° 0 mm 1 m/s 751 mmHg 58%
    18:00 +24°C° 0 mm 1 m/s 751 mmHg 61%
    19:00 +23°C° 0 mm 1 m/s 750 mmHg 65%
    20:00 +22°C° 0 mm 1 m/s 751 mmHg 67%
    21:00 +21°C° 0 mm 1 m/s 751 mmHg 69%
    22:00 +20°C° 0 mm 1 m/s 751 mmHg 71%
    23:00 +20°C° 0 mm 1 m/s 751 mmHg 71%

    Depois de amanhã, 17 Agosto, Sexta-feira

    Tempo Temperatura Precipitação Vento Pressão Humidade
    00:00 +19°C° 0 mm 2 m/s 750 mmHg 72%
    01:00 +18°C° 0 mm 2 m/s 750 mmHg 73%
    02:00 +18°C° 0 mm 2 m/s 750 mmHg 75%
    03:00 +17°C° 0 mm 2 m/s 750 mmHg 76%
    04:00 +17°C° 0 mm 2 m/s 750 mmHg 77%
    05:00 +18°C° 0 mm 2 m/s 750 mmHg 74%
    06:00 +19°C° 0 mm 2 m/s 750 mmHg 71%
    07:00 +20°C° 0 mm 3 m/s 750 mmHg 68%
    08:00 +22°C° 0 mm 3 m/s 750 mmHg 61%
    09:00 +25°C° 0 mm 3 m/s 750 mmHg 55%
    10:00 +27°C° 0 mm 3 m/s 750 mmHg 49%
    11:00 +27°C° 0 mm 3 m/s 750 mmHg 47%
    12:00 +28°C° 0 mm 3 m/s 750 mmHg 46%
    13:00 +28°C° 0 mm 3 m/s 750 mmHg 44%
    14:00 +28°C° 0 mm 3 m/s 749 mmHg 45%
    15:00 +28°C° 0 mm 2 m/s 749 mmHg 46%
    16:00 +28°C° 0 mm 2 m/s 749 mmHg 47%
    17:00 +27°C° 0 mm 2 m/s 749 mmHg 51%
    18:00 +26°C° 0 mm 2 m/s 749 mmHg 56%
    19:00 +25°C° 0 mm 2 m/s 749 mmHg 60%
    20:00 +24°C° 0 mm 2 m/s 749 mmHg 61%
    21:00 +23°C° 0 mm 2 m/s 749 mmHg 63%
    22:00 +23°C° 0 mm 2 m/s 749 mmHg 64%
    23:00 +23°C° 0 mm 2 m/s 749 mmHg 64%

    18 Agosto, Sábado

    Tempo Temperatura Precipitação Vento Pressão Humidade
    00:00 +23°C° 0 mm 2 m/s 749 mmHg 65%
    01:00 +21°C° 0 mm 2 m/s 749 mmHg 65%
    02:00 +21°C° 0 mm 2 m/s 749 mmHg 66%
    03:00 +21°C° 0 mm 2 m/s 749 mmHg 66%
    04:00 +22°C° 0 mm 1 m/s 749 mmHg 66%
    05:00 +22°C° 0 mm 1 m/s 749 mmHg 67%
    06:00 +22°C° 0 mm 1 m/s 749 mmHg 67%
    07:00 +23°C° 0 mm 1 m/s 750 mmHg 67%
    08:00 +24°C° 0,3 mm 1 m/s 750 mmHg 66%
    09:00 +25°C° 0,3 mm 1 m/s 750 mmHg 65%
    10:00 +25°C° 0,3 mm 2 m/s 750 mmHg 64%
    11:00 +26°C° 0,6 mm 2 m/s 750 mmHg 63%
    12:00 +26°C° 0,6 mm 1 m/s 750 mmHg 63%
    13:00 +26°C° 0,6 mm 1 m/s 750 mmHg 62%
    14:00 +26°C° 0,6 mm 2 m/s 750 mmHg 63%
    15:00 +26°C° 0,6 mm 2 m/s 750 mmHg 63%
    16:00 +26°C° 0,6 mm 3 m/s 751 mmHg 64%
    17:00 +24°C° 0,3 mm 3 m/s 751 mmHg 70%
    18:00 +22°C° 0,3 mm 3 m/s 751 mmHg 76%
    19:00 +20°C° 0,3 mm 3 m/s 751 mmHg 82%
    20:00 +19°C° 0 mm 3 m/s 751 mmHg 83%
    21:00 +18°C° 0 mm 2 m/s 752 mmHg 84%
    22:00 +17°C° 0 mm 2 m/s 752 mmHg 86%
    23:00 +16°C° 0 mm 2 m/s 752 mmHg 84%

    19 Agosto, Domingo

    Tempo Temperatura Precipitação Vento Pressão Humidade
    00:00 +16°C° 0 mm 2 m/s 752 mmHg 82%
    01:00 +15°C° 0 mm 1 m/s 752 mmHg 80%
    02:00 +15°C° 0 mm 1 m/s 752 mmHg 79%
    03:00 +15°C° 0 mm 1 m/s 752 mmHg 78%
    04:00 +15°C° 0 mm 1 m/s 752 mmHg 77%
    05:00 +16°C° 0 mm 2 m/s 752 mmHg 75%
    06:00 +17°C° 0 mm 2 m/s 753 mmHg 73%
    07:00 +18°C° 0 mm 2 m/s 753 mmHg 71%
    08:00 +20°C° 0 mm 3 m/s 753 mmHg 66%
    09:00 +21°C° 0 mm 3 m/s 753 mmHg 60%
    10:00 +23°C° 0 mm 4 m/s 753 mmHg 55%
    11:00 +25°C° 0 mm 4 m/s 753 mmHg 55%
    12:00 +25°C° 0 mm 4 m/s 753 mmHg 55%
    13:00 +25°C° 0 mm 4 m/s 753 mmHg 55%
    14:00 +25°C° 0,1 mm 4 m/s 753 mmHg 57%
    15:00 +25°C° 0,1 mm 4 m/s 753 mmHg 59%
    16:00 +25°C° 0,1 mm 3 m/s 753 mmHg 61%
    17:00 +24°C° 0 mm 3 m/s 752 mmHg 67%
    18:00 +21°C° 0 mm 2 m/s 752 mmHg 72%
    19:00 +20°C° 0 mm 2 m/s 752 mmHg 78%
    20:00 +20°C° 0 mm 1 m/s 752 mmHg 81%
    21:00 +19°C° 0 mm 1 m/s 753 mmHg 85%
    22:00 +19°C° 0 mm 1 m/s 753 mmHg 88%
    23:00 +18°C° 0 mm 1 m/s 753 mmHg 89%

    20 Agosto, Segunda-feira

    Tempo Temperatura Precipitação Vento Pressão Humidade
    00:00 +18°C° 0 mm 1 m/s 753 mmHg 91%
    01:00 +18°C° 0 mm 1 m/s 752 mmHg 92%
    02:00 +18°C° 0 mm 1 m/s 752 mmHg 92%
    03:00 +16°C° 0 mm 1 m/s 752 mmHg 92%
    04:00 +16°C° 0 mm 1 m/s 752 mmHg 92%
    05:00 +18°C° 0 mm 1 m/s 752 mmHg 87%
    06:00 +19°C° 0 mm 2 m/s 752 mmHg 83%
    07:00 +20°C° 0 mm 2 m/s 752 mmHg 78%
    08:00 +21°C° 0 mm 2 m/s 752 mmHg 71%
    09:00 +24°C° 0 mm 3 m/s 752 mmHg 63%
    10:00 +26°C° 0 mm 3 m/s 752 mmHg 56%
    11:00 +27°C° 0 mm 3 m/s 751 mmHg 52%
    12:00 +28°C° 0 mm 3 m/s 751 mmHg 49%
    13:00 +28°C° 0 mm 3 m/s 751 mmHg 46%
    14:00 +28°C° 0 mm 3 m/s 750 mmHg 47%
    15:00 +28°C° 0 mm 3 m/s 750 mmHg 48%
    16:00 +28°C° 0 mm 3 m/s 750 mmHg 49%
    17:00 +27°C° 0 mm 3 m/s 749 mmHg 54%
    18:00 +25°C° 0 mm 2 m/s 749 mmHg 59%
    19:00 +24°C° 0 mm 2 m/s 749 mmHg 64%
    20:00 +23°C° 0 mm 2 m/s 749 mmHg 69%
    21:00 +21°C° 0 mm 2 m/s 749 mmHg 75%
    22:00 +20°C° 0 mm 2 m/s 749 mmHg 80%
    23:00 +19°C° 0 mm 2 m/s 749 mmHg 83%
    Mostrar mais